Tiempo atmosférico en la estación meteorológica de Degaña, Asturias (1305 m.)



Fecha
DESCASC
Temp. máxima en grados centígrados (hora)
DESCASC
Temp. mínima en grados centígrados (hora)
DESCASC
Temp. media en grados centígrados
DESCASC
Racha de viento máxima en m/sg (hora)
DESCASC
Velocidad máxima media en intervalos de 10 minutos(hora)
DESCASC
Precipitaciones diarias en mm
DESCASC
Precipitaciones de 00:00 a 06:00 en mm
DESCASC
Precipitaciones de 06:00 a 12:00 en mm
DESCASC
Precipitaciones de 12:00 a 18:00 en mm
DESCASC
Precipitaciones de 18:00 a 24:00 en mm
DESCASC
08-12-2019 7.9 (14:10) 2 (22:00) 5 3.33 (13:10) 1.39 (10:40) 10 0.8 6 3.2 0
07-12-2019 10 (14:50) 1.1 (03:10) 5.6 3.33 (12:20) 1.67 (05:10) 0 0 0 0 0
06-12-2019 8.7 (14:30) 0.4 (02:50) 4.5 5.83 (03:30) 3.61 (03:30) 0 0 0 0 0
05-12-2019 8.5 (13:10) -2.5 (-00:0) 3 10 (04:50) 5 (05:00) 0 0 0 0 0
04-12-2019 6.1 (12:30) -2.1 (-00:0) 2 11.11 (02:20) 6.94 (01:10) 0 0 0 0 0
03-12-2019 4.9 (12:50) -2 (-00:0) 1.5 10 (22:00) 7.22 (22:00) 0 0 0 0 0
02-12-2019 3.2 (10:50) -0.3 (00:00) 1.5 13.89 (11:50) 5.56 (15:20) 0 0 0 0 0
01-12-2019 3.8 (12:20) 0.5 (00:00) 2.1 11.67 (22:30) 5 (04:40) 2.2 0.8 0 0.2 1.2
30-11-2019 6.9 (08:30) 1.8 (00:00) 4.4 7.78 (11:30) 3.33 (00:40) 0 0 0 0 0
29-11-2019 9.3 (14:50) 0.5 (00:00) 4.9 7.78 (23:30) 2.5 (23:30) 0 0 0 0 0
28-11-2019 7 (21:50) 3.5 (00:00) 5.3 6.39 (16:30) 3.06 (15:30) 11.8 1.6 0 3.6 6.6
27-11-2019 5.5 (11:40) 2.7 (00:00) 4.1 8.89 (21:50) 3.61 (15:40) 7.8 0.4 0 3.2 4.2
26-11-2019 8.3 (03:30) 2.7 (00:00) 5.5 15.83 (14:50) 4.17 (02:00) 0.6 0 0 0 0.6
25-11-2019 8 (14:00) 2.3 (00:00) 5.1 9.17 (06:00) 3.33 (01:10) 0.6 0.4 0.2 0 0
24-11-2019 5.2 (20:10) 0.7 (00:00) 2.9 8.33 (19:10) 3.33 (17:20) 17.4 3.8 2 7.6 4
23-11-2019 1.9 (14:10) -0.1 (00:00) 0.9 -- (--) -- (--) -- -- -- -- --
22-11-2019 5.4 (12:10) 0.4 (00:00) 2.9 14.44 (07:40) 5 (07:20) 45 7.2 16.2 5.6 16
21-11-2019 4.4 (13:50) -0.2 (00:00) 2.1 -- (--) -- (--) -- -- -- 1 0
20-11-2019 3.3 (14:40) 1.2 (00:00) 2.3 -- (--) -- (--) -- -- -- -- --
19-11-2019 3.7 (13:20) -3.6 (-00:0) 0.1 -- (--) -- (--) -- -- -- -- --
18-11-2019 1.8 (14:00) -1.4 (-00:0) 0.2 -- (--) -- (--) -- -- -- -- --
17-11-2019 2.5 (08:10) -0.4 (00:00) 1 -- (--) -- (--) -- -- -- -- --
16-11-2019 0.1 (15:20) -2 (-00:0) -0.9 -- (--) -- (--) -- -- -- -- --
15-11-2019 -0.9 (14:10) -2.4 (-00:0) -1.7 -- (--) -- (--) -- -- -- -- --
14-11-2019 2 (00:00) -2 (-00:0) 0 -- (--) -- (--) -- -- -- -- --
13-11-2019 7.6 (00:20) 1.9 (00:00) 4.7 13.61 (00:30) 4.17 (00:30) 21.2 16.8 3.6 0.8 0
12-11-2019 7.1 (23:59) 0.4 (00:00) 3.7 -- (--) 1.39 (23:59) -- -- -- 0 0
11-11-2019 5.8 (09:10) 0.1 (00:10) 3 -- (--) -- (--) -- -- -- -- --

Gráficas

Temp. máximas Temp. mínimas Temp. medias Precipitaciones Rachas de viento máximas Velocidades máximas media en intervalos de 10 minutos

Datos horarios

Fecha y hora oficial Temperatura (ºC) Velocidad del viento (km/h) Dirección del viento Racha (km/h) Dirección de racha Precipitación (mm) Presión (hPa) Tendencia (hPa) Humedad (%)
2019-12-10 23:00:00 3.7 0 Calma 5 Noroeste 0 -- -- 72
2019-12-10 22:00:00 4.7 3 Norte 9 Nordeste 0 -- -- 64
2019-12-10 21:00:00 4 3 Este 12 Noroeste 0 -- -- 70
2019-12-10 20:00:00 3.6 4 Noroeste 9 Noroeste 0 -- -- 62
2019-12-10 19:00:00 3.4 3 Norte 9 Noroeste 0 -- -- 66
2019-12-10 18:00:00 4.9 0 Calma 6 Noroeste 0 -- -- 66
2019-12-10 17:00:00 6.4 0 Calma 10 Sudeste 0 -- -- 65
2019-12-10 16:00:00 7.7 2 Nordeste 5 Sudoeste 0 -- -- 50
2019-12-10 15:00:00 7.7 2 Sudeste 6 Sudoeste 0 -- -- 48
2019-12-10 14:00:00 7.8 3 Norte 8 Norte 0 -- -- 53
2019-12-10 13:00:00 7.3 0 Calma 6 Sur 0 -- -- 58
2019-12-10 12:00:00 7.1 2 Sudeste 6 Sur 0 -- -- 55
2019-12-10 11:00:00 4.9 0 Calma 5 Noroeste 0 -- -- 70
2019-12-10 10:00:00 2.9 0 Calma 6 Noroeste 0 -- -- 81
2019-12-10 09:00:00 1.9 2 Norte 6 Noroeste 0 -- -- 82
2019-12-10 08:00:00 1.7 2 Noroeste 6 Noroeste 0 -- -- 83
2019-12-10 07:00:00 0.9 2 Noroeste 6 Noroeste 0 -- -- 80
2019-12-10 06:00:00 0.2 4 Noroeste 7 Noroeste 0 -- -- 80
2019-12-10 05:00:00 -0.1 5 Noroeste 8 Noroeste 0 -- -- 82
2019-12-10 04:00:00 0.1 4 Noroeste 8 Noroeste 0 -- -- 82
2019-12-10 03:00:00 -0.1 4 Noroeste 6 Noroeste 0 -- -- 84
2019-12-10 02:00:00 -0.3 3 Noroeste 8 Noroeste 0 -- -- 86
2019-12-10 01:00:00 -0.4 5 Noroeste 9 Noroeste 0 -- -- 87
2019-12-10 00:00:00 -0.2 3 Noroeste 8 Noroeste 0 -- -- 86
2019-12-09 23:00:00 -0.2 3 Norte 8 Noroeste 0 -- -- 89
2019-12-09 22:00:00 -0.9 3 Noroeste 6 Noroeste 0 -- -- 99
2019-12-09 21:00:00 -0.5 3 Noroeste 5 Oeste 0 -- -- 100
2019-12-09 20:00:00 0.5 0 Calma 7 Oeste 0 -- -- 100
2019-12-09 19:00:00 0.1 4 Noroeste 6 Noroeste 0 -- -- 98
2019-12-09 18:00:00 1.9 0 Calma 5 Noroeste 0 -- -- 95
2019-12-09 17:00:00 3.6 0 Calma 12 Sudeste 0 -- -- 92
2019-12-09 16:00:00 4.6 2 Este 8 Este 0 -- -- 90
2019-12-09 15:00:00 4.5 2 Noroeste 9 Noroeste 0 -- -- 89
2019-12-09 14:00:00 4.6 2 Sudoeste 16 Noroeste 0 -- -- 90
2019-12-09 13:00:00 4.5 5 Oeste 15 Sudoeste 0 -- -- 84
2019-12-09 12:00:00 4.7 3 Sudoeste 18 Oeste 0 -- -- 87
2019-12-09 11:00:00 3.3 2 Sudeste 13 Oeste 0 -- -- 91
2019-12-09 10:00:00 0.5 3 Oeste 14 Noroeste 0 -- -- 96
2019-12-09 09:00:00 -0.3 0 Calma 8 Noroeste 0 -- -- 95
2019-12-09 08:00:00 -0.5 2 Noroeste 7 Noroeste 0 -- -- 94
2019-12-09 07:00:00 -0.2 3 Noroeste 8 Sur 0 -- -- 91
2019-12-09 06:00:00 0.3 4 Noroeste 19 Sudoeste 0 -- -- 85
2019-12-09 05:00:00 2.1 6 Sudoeste 20 Oeste 0 -- -- 68
2019-12-09 04:00:00 0.1 5 Oeste 16 Sudoeste 0 -- -- 95
2019-12-09 03:00:00 -0.6 3 Noroeste 9 Noroeste 0 -- -- 100
2019-12-09 02:00:00 -0.4 4 Noroeste 10 Noroeste 0 -- -- 100
2019-12-09 01:00:00 -0.1 3 Noroeste 8 Norte 0 -- -- 100
2019-12-09 00:00:00 2.1 4 Norte 6 Oeste 0 -- -- 100
2019-12-08 23:00:00 2.4 0 Calma 5 Norte 0 -- -- 100
2019-12-08 22:00:00 2 3 Noroeste 9 Norte 0 -- -- 100
2019-12-08 21:00:00 3.7 0 Calma 5 Oeste 0 -- -- 100
2019-12-08 20:00:00 4 2 Noroeste 6 Noroeste 0 -- -- 100
2019-12-08 19:00:00 3.1 4 Noroeste 6 Noroeste 0 -- -- 100
2019-12-08 18:00:00 5.3 2 Norte 5 Noroeste 0 -- -- 100
2019-12-08 17:00:00 6.1 0 Calma 5 Oeste 0 -- -- 100
2019-12-08 16:00:00 7.2 2 Noroeste 8 Norte 0 -- -- 100
2019-12-08 15:00:00 7.9 3 Noroeste 11 Noroeste 0.4 -- -- 100
2019-12-08 14:00:00 7.8 4 Noroeste 12 Noroeste 1.4 -- -- 100
2019-12-08 13:00:00 7.4 4 Noroeste 9 Noroeste 1.4 -- -- 100
2019-12-08 12:00:00 6.8 3 Noroeste 7 Noroeste 1.2 -- -- 100
2019-12-08 11:00:00 5.8 2 Noroeste 9 Noroeste 2.2 -- -- 100
2019-12-08 10:00:00 5.1 0 Calma 6 Oeste 1.2 -- -- 100
2019-12-08 09:00:00 5.3 3 Noroeste 6 Oeste 0.6 -- -- 100
2019-12-08 08:00:00 5.1 3 Noroeste 4 Noroeste 0.4 -- -- 100
2019-12-08 07:00:00 5 0 Calma 5 Noroeste 0.4 -- -- 100
2019-12-08 06:00:00 5.2 0 Calma 4 Oeste 0.2 -- -- 100
2019-12-08 05:00:00 4.8 0 Calma 3 Oeste 0.4 -- -- 100
2019-12-08 04:00:00 4.8 0 Calma 2 Norte 0.2 -- -- 100
2019-12-08 03:00:00 4.7 0 Calma 4 Noroeste 0 -- -- 100
2019-12-08 02:00:00 4.4 0 Calma 2 Noroeste 0 -- -- 100
2019-12-08 01:00:00 4.1 2 Oeste 6 Noroeste 0 -- -- 98
2019-12-08 00:00:00 4.2 0 Calma 6 Noroeste 0 -- -- 98
2019-12-07 23:00:00 3.6 0 Calma 8 Noroeste 0 -- -- 99
2019-12-07 22:00:00 3.3 3 Oeste 6 Noroeste 0 -- -- 97
2019-12-07 21:00:00 3.9 3 Oeste 7 Noroeste 0 -- -- 98
2019-12-07 20:00:00 3.3 3 Noroeste 6 Noroeste 0 -- -- 97
2019-12-07 19:00:00 5.4 2 Noroeste 6 Noroeste 0 -- -- 93
2019-12-07 18:00:00 5.5 0 Calma 4 Oeste 0 -- -- 89
2019-12-07 17:00:00 7.7 0 Calma 7 Sur 0 -- -- 83
2019-12-07 16:00:00 9 0 Calma 9 Noroeste 0 -- -- 83
2019-12-07 15:00:00 9.9 2 Nordeste 8 Sur 0 -- -- 81
2019-12-07 14:00:00 9.5 0 Calma 6 Noroeste 0 -- -- 85
2019-12-07 13:00:00 9.7 4 Sur 12 Noroeste 0 -- -- 84
2019-12-07 12:00:00 7.3 0 Calma 5 Oeste 0 -- -- 88
2019-12-07 11:00:00 5.9 0 Calma 3 Norte 0 -- -- 88
2019-12-07 10:00:00 4.4 0 Calma 5 Oeste 0 -- -- 93
2019-12-07 09:00:00 2.8 3 Noroeste 5 Noroeste 0 -- -- 94
2019-12-07 08:00:00 3 3 Noroeste 5 Noroeste 0 -- -- 87
2019-12-07 07:00:00 3.3 0 Calma 5 Oeste 0 -- -- 79
2019-12-07 06:00:00 3.4 0 Calma 8 Noroeste 0 -- -- 79
2019-12-07 05:00:00 2.6 5 Noroeste 7 Noroeste 0 -- -- 76
2019-12-07 04:00:00 1.5 5 Noroeste 8 Noroeste 0 -- -- 79
2019-12-07 03:00:00 1.2 4 Noroeste 6 Noroeste 0 -- -- 82
2019-12-07 02:00:00 1.5 4 Noroeste 8 Noroeste 0 -- -- 86
2019-12-07 01:00:00 1.9 5 Noroeste 8 Noroeste 0 -- -- 85
2019-12-07 00:00:00 2.5 3 Noroeste 6 Noroeste 0 -- -- 83
2019-12-06 23:00:00 2.1 0 Calma 7 Noroeste 0 -- -- 82
2019-12-06 22:00:00 1.4 3 Noroeste 6 Noroeste 0 -- -- 82
2019-12-06 21:00:00 1.5 0 Calma 6 Noroeste 0 -- -- 91
2019-12-06 20:00:00 1.7 4 Oeste 7 Noroeste 0 -- -- 87
2019-12-06 19:00:00 2.4 3 Noroeste 6 Noroeste 0 -- -- 91
2019-12-06 18:00:00 3.8 0 Calma 4 Sudeste 0 -- -- 89
2019-12-06 17:00:00 5.5 0 Calma 6 Sur 0 -- -- 85
2019-12-06 16:00:00 7.2 2 Noroeste 11 Sur 0 -- -- 77
2019-12-06 15:00:00 8.4 2 Noroeste 8 Sudoeste 0 -- -- 71
2019-12-06 14:00:00 8.4 3 Sur 8 Sudeste 0 -- -- 71
2019-12-06 13:00:00 7.1 4 Norte 8 Noroeste 0 -- -- 73
2019-12-06 12:00:00 7.8 2 Noroeste 8 Sur 0 -- -- 70
2019-12-06 11:00:00 6.4 3 Sudeste 5 Sur 0 -- -- 78
2019-12-06 10:00:00 3.3 2 Noroeste 6 Noroeste 0 -- -- 91
2019-12-06 09:00:00 2 5 Noroeste 6 Noroeste 0 -- -- 94
2019-12-06 08:00:00 1.4 3 Oeste 7 Noroeste 0 -- -- 96
2019-12-06 07:00:00 1.3 3 Noroeste 6 Noroeste 0 -- -- 97
2019-12-06 06:00:00 0.9 4 Noroeste 6 Noroeste 0 -- -- 98
2019-12-06 05:00:00 0.6 4 Noroeste 8 Noroeste 0 -- -- 99
2019-12-06 04:00:00 1.6 2 Sudeste 21 Este 0 -- -- 93
2019-12-06 03:00:00 0.5 3 Noroeste 7 Sudoeste 0 -- -- 99
2019-12-06 02:00:00 0.9 3 Norte 9 Norte 0 -- -- 96
2019-12-06 01:00:00 2.1 4 Nordeste 18 Nordeste 0 -- -- 90
2019-12-06 00:00:00 4.4 6 Este 20 Nordeste 0 -- -- 86
2019-12-05 23:00:00 4.7 12 Nordeste 24 Este 0 -- -- 85
2019-12-05 22:00:00 5.1 13 Nordeste 20 Nordeste 0 -- -- 84
2019-12-05 21:00:00 5.6 10 Nordeste 20 Nordeste 0 -- -- 82
2019-12-05 20:00:00 5.1 14 Nordeste 22 Nordeste 0 -- -- 86
2019-12-05 19:00:00 1.2 0 Calma 8 Sudoeste 0 -- -- 98
2019-12-05 18:00:00 2.9 0 Calma 4 Noroeste 0 -- -- 97
2019-12-05 17:00:00 3.6 0 Calma 6 Noroeste 0 -- -- 96
2019-12-05 16:00:00 4.2 0 Calma 6 Noroeste 0 -- -- 94
2019-12-05 15:00:00 4.1 4 Noroeste 9 Oeste 0 -- -- 94
2019-12-05 14:00:00 5.8 2 Oeste 21 Este 0 -- -- 84
2019-12-05 13:00:00 8 12 Este 21 Este 0 -- -- 69
2019-12-05 12:00:00 7 12 Este 26 Este 0 -- -- 73
2019-12-05 11:00:00 5.7 18 Este 31 Nordeste 0 -- -- 77
2019-12-05 10:00:00 3.9 18 Este 27 Este 0 -- -- 83
2019-12-05 09:00:00 2.8 10 Nordeste 23 Este 0 -- -- 86
2019-12-05 08:00:00 2.2 6 Nordeste 16 Este 0 -- -- 86
2019-12-05 07:00:00 2.8 4 Este 25 Nordeste 0 -- -- 83
2019-12-05 06:00:00 3.1 10 Nordeste 23 Nordeste 0 -- -- 81
2019-12-05 05:00:00 2.9 18 Norte 36 Nordeste 0 -- -- 83
2019-12-05 04:00:00 1.1 8 Nordeste 18 Norte 0 -- -- 90
2019-12-05 03:00:00 -2.3 0 Calma 6 Noroeste 0 -- -- 99
2019-12-05 02:00:00 -2.2 3 Oeste 8 Noroeste 0 -- -- 99
2019-12-05 01:00:00 -1.7 0 Calma 5 Noroeste 0 -- -- 99
2019-12-05 00:00:00 -1.6 0 Calma 3 Noroeste 0 -- -- 99
2019-12-04 23:00:00 -2.1 0 Calma 3 Noroeste 0 -- -- 96
2019-12-04 22:00:00 -1.8 2 Noroeste 3 Noroeste 0 -- -- 95
2019-12-04 21:00:00 -0.9 0 Calma 5 Noroeste 0 -- -- 95
2019-12-04 20:00:00 -1 2 Noroeste 4 Noroeste 0 -- -- 95
2019-12-04 19:00:00 -0.9 2 Noroeste 4 Noroeste 0 -- -- 93
2019-12-04 18:00:00 0.4 0 Calma 6 Oeste 0 -- -- 88
2019-12-04 17:00:00 2.2 3 Noroeste 9 Noroeste 0 -- -- 80
2019-12-04 16:00:00 3.9 3 Noroeste 9 Oeste 0 -- -- 72
2019-12-04 15:00:00 5.8 2 Sur 11 Oeste 0 -- -- 69
2019-12-04 14:00:00 4.6 3 Noroeste 12 Sur 0 -- -- 70
2019-12-04 13:00:00 5.7 4 Sur 21 Este 0 -- -- 67
2019-12-04 12:00:00 5.1 13 Este 27 Este 0 -- -- 69
2019-12-04 11:00:00 3.6 14 Este 23 Este 0 -- -- 75
2019-12-04 10:00:00 1.8 12 Este 24 Este 0 -- -- 83
2019-12-04 09:00:00 0.7 13 Nordeste 26 Nordeste 0 -- -- 86
2019-12-04 08:00:00 0.3 13 Nordeste 26 Este 0 -- -- 88
2019-12-04 07:00:00 -0.2 17 Nordeste 32 Este 0 -- -- 89
2019-12-04 06:00:00 -1.2 22 Nordeste 33 Este 0 -- -- 88
2019-12-04 05:00:00 -1.1 18 Nordeste 29 Este 0 -- -- 84
2019-12-04 04:00:00 -1.1 17 Este 29 Nordeste 0 -- -- 82
2019-12-04 03:00:00 -1.1 20 Nordeste 40 Nordeste 0 -- -- 81
2019-12-04 02:00:00 -1 23 Nordeste 37 Nordeste 0 -- -- 81
2019-12-04 01:00:00 -0.9 24 Nordeste 36 Nordeste 0 -- -- 79
2019-12-04 00:00:00 -0.5 10 Nordeste 19 Nordeste 0 -- -- 75
2019-12-03 23:00:00 -1.4 2 Noroeste 34 Este 0 -- -- 80
2019-12-03 22:00:00 0.1 26 Este 36 Este 0 -- -- 77
2019-12-03 21:00:00 1 21 Nordeste 30 Nordeste 0 -- -- 70
2019-12-03 20:00:00 -1.5 2 Noroeste 8 Oeste 0 -- -- 85
2019-12-03 19:00:00 -1.3 4 Noroeste 5 Oeste 0 -- -- 88
2019-12-03 18:00:00 -1.1 0 Calma 3 Sur 0 -- -- 93
2019-12-03 17:00:00 0.7 0 Calma 6 Oeste 0 -- -- 87
2019-12-03 16:00:00 2 2 Oeste 9 Sur 0 -- -- 81
2019-12-03 15:00:00 3.4 2 Sudoeste 12 Sur 0 -- -- 77
2019-12-03 14:00:00 3.9 4 Sur 10 Sudoeste 0 -- -- 72
2019-12-03 13:00:00 4.8 5 Sur 20 Este 0 -- -- 63
2019-12-03 12:00:00 3.8 16 Nordeste 28 Este 0 -- -- 46
2019-12-03 11:00:00 2.8 15 Nordeste 25 Este 0 -- -- 49
2019-12-03 10:00:00 1.7 17 Este 27 Sudeste 0 -- -- 52
2019-12-03 09:00:00 -0.1 18 Nordeste 30 Nordeste 0 -- -- 59
2019-12-03 08:00:00 -0.1 18 Este 28 Este 0 -- -- 57
2019-12-03 07:00:00 -0.4 13 Este 27 Nordeste 0 -- -- 58
2019-12-03 06:00:00 -0.3 19 Este 26 Este 0 -- -- 59
2019-12-03 05:00:00 -0.2 11 Nordeste 19 Nordeste 0 -- -- 58
2019-12-03 04:00:00 -0.6 12 Nordeste 18 Nordeste 0 -- -- 65
2019-12-03 03:00:00 -0.5 10 Este 17 Este 0 -- -- 64
2019-12-03 02:00:00 -0.3 7 Este 19 Nordeste 0 -- -- 64
2019-12-03 01:00:00 -1.8 0 Calma 7 Nordeste 0 -- -- 80
2019-12-03 00:00:00 -0.2 4 Este 23 Este 0 -- -- 71
2019-12-02 23:00:00 -0.2 13 Nordeste 27 Este 0 -- -- 74
2019-12-02 22:00:00 -0.1 12 Este 23 Este 0 -- -- 81
2019-12-02 21:00:00 0.5 6 Este 25 Este 0 -- -- 80
2019-12-02 20:00:00 1.8 16 Este 32 Este 0 -- -- 68
2019-12-02 19:00:00 1.7 10 Este 26 Este 0 -- -- 73
2019-12-02 18:00:00 2 10 Este 31 Nordeste 0 -- -- 80
2019-12-02 17:00:00 2.6 15 Nordeste 32 Nordeste 0 -- -- 80
2019-12-02 16:00:00 3 13 Nordeste 37 Nordeste 0 -- -- 76
2019-12-02 15:00:00 3.2 14 Nordeste 28 Nordeste 0 -- -- 80
2019-12-02 14:00:00 2.4 14 Nordeste 36 Este 0 -- -- 87
2019-12-02 13:00:00 2.9 5 Sur 39 Este 0 -- -- 86
2019-12-02 12:00:00 3.2 10 Este 50 Este 0 -- -- 84
2019-12-02 11:00:00 3.1 18 Nordeste 37 Nordeste 0 -- -- 82
2019-12-02 10:00:00 2.9 10 Nordeste 29 Nordeste 0 -- -- 87
2019-12-02 09:00:00 2.7 15 Nordeste 44 Este 0 -- -- 85
2019-12-02 08:00:00 2.3 14 Nordeste 38 Nordeste 0 -- -- 87
2019-12-02 07:00:00 2.1 19 Nordeste 33 Este 0 -- -- 87
2019-12-02 06:00:00 1.9 16 Este 38 Este 0 -- -- 87
2019-12-02 05:00:00 1.1 7 Este 24 Nordeste 0 -- -- 92
2019-12-02 04:00:00 0.7 3 Norte 17 Sudeste 0 -- -- 95
2019-12-02 03:00:00 0.6 8 Este 28 Este 0 -- -- 96
2019-12-02 02:00:00 0.5 6 Sudeste 41 Este 0 -- -- 96
2019-12-02 01:00:00 0.8 14 Este 39 Este 0 -- -- 96
2019-12-02 00:00:00 0.5 7 Sudeste 36 Este 0 -- -- 98
2019-12-01 23:00:00 0.7 8 Sudeste 42 Nordeste 0 -- -- 97
2019-12-01 22:00:00 0.7 12 Sudeste 40 Noroeste 0 -- -- 97
2019-12-01 21:00:00 1 10 Sur 32 Oeste 0 -- -- 98
2019-12-01 20:00:00 1.5 6 Sur 37 Oeste 0.6 -- -- 97
2019-12-01 19:00:00 1.9 7 Sur 30 Norte 0.6 -- -- 96
2019-12-01 18:00:00 2.4 5 Sudoeste 24 Sudoeste 0.2 -- -- 95
2019-12-01 17:00:00 2.7 6 Sudeste 28 Este 0 -- -- 95
2019-12-01 16:00:00 2.9 11 Sudeste 32 Sudeste 0 -- -- 91
2019-12-01 15:00:00 2.7 10 Sur 23 Sur 0 -- -- 99
2019-12-01 14:00:00 2.5 3 Sur 11 Sur 0 -- -- 99
2019-12-01 13:00:00 3.4 3 Sur 9 Oeste 0 -- -- 98
2019-12-01 12:00:00 3.4 6 Sur 17 Oeste 0 -- -- 98
2019-12-01 11:00:00 2.9 5 Nordeste 19 Noroeste 0 -- -- 94
2019-12-01 10:00:00 2.2 6 Norte 13 Norte 0 -- -- 100
2019-12-01 09:00:00 1.8 0 Calma 14 Este 0 -- -- 98
2019-12-01 08:00:00 2.4 9 Este 22 Este 0 -- -- 94
2019-12-01 07:00:00 2 13 Nordeste 22 Este 0 -- -- 97
2019-12-01 06:00:00 1.9 10 Este 23 Este 0 -- -- 97
2019-12-01 05:00:00 1.8 13 Nordeste 27 Este 0 -- -- 96
2019-12-01 04:00:00 2.1 10 Este 24 Este 0.2 -- -- 95
2019-12-01 03:00:00 2.4 4 Sudeste 14 Sudeste 0.6 -- -- 93
2019-12-01 02:00:00 2.1 4 Noroeste 18 Sur 0 -- -- 97
2019-12-01 01:00:00 2.3 4 Este 19 Sudeste 0 -- -- 96
2019-12-01 00:00:00 2 2 Noroeste 9 Oeste 0 -- -- 98
2019-11-30 23:00:00 2.1 5 Noroeste 10 Noroeste 0 -- -- 96
2019-11-30 22:00:00 2.2 4 Noroeste 8 Noroeste 0 -- -- 98
2019-11-30 21:00:00 1.9 3 Noroeste 11 Noroeste 0 -- -- 96
2019-11-30 20:00:00 2 5 Noroeste 11 Noroeste 0 -- -- 95
2019-11-30 19:00:00 2.6 5 Noroeste 12 Noroeste 0 -- -- 87
2019-11-30 18:00:00 3.1 4 Noroeste 21 Oeste 0 -- -- 86
2019-11-30 17:00:00 3.7 6 Noroeste 16 Oeste 0 -- -- 81
2019-11-30 16:00:00 4.3 4 Noroeste 25 Oeste 0 -- -- 79
2019-11-30 15:00:00 5.3 5 Noroeste 19 Oeste 0 -- -- 66
2019-11-30 14:00:00 4.7 4 Noroeste 21 Oeste 0 -- -- 82
2019-11-30 13:00:00 4.3 3 Norte 28 Oeste 0 -- -- 88
2019-11-30 12:00:00 4 5 Noroeste 28 Oeste 0 -- -- 94
2019-11-30 11:00:00 4.9 7 Noroeste 24 Noroeste 0 -- -- 93
2019-11-30 10:00:00 4.8 6 Oeste 24 Oeste 0 -- -- 95
2019-11-30 09:00:00 6.1 8 Noroeste 26 Noroeste 0 -- -- 94
2019-11-30 08:00:00 6.8 6 Norte 17 Sur 0 -- -- 99
2019-11-30 07:00:00 6 6 Noroeste 15 Noroeste 0 -- -- 100
2019-11-30 06:00:00 6.4 6 Noroeste 15 Oeste 0 -- -- 100
2019-11-30 05:00:00 6.4 5 Noroeste 16 Noroeste 0 -- -- 100
2019-11-30 04:00:00 6.1 4 Norte 21 Sudoeste 0 -- -- 99
2019-11-30 03:00:00 6.4 5 Norte 18 Sudeste 0 -- -- 100
2019-11-30 02:00:00 5.7 3 Noroeste 14 Sudeste 0 -- -- 96
2019-11-30 01:00:00 6.5 5 Nordeste 21 Este 0 -- -- 95
2019-11-30 00:00:00 6.2 8 Este 28 Este 0 -- -- 87
2019-11-29 23:00:00 5.8 4 Norte 13 Sudoeste 0 -- -- 86
2019-11-29 22:00:00 4.3 2 Nordeste 15 Sur 0 -- -- 91
2019-11-29 21:00:00 3.3 0 Calma 8 Oeste 0 -- -- 92
2019-11-29 20:00:00 2.9 3 Norte 6 Noroeste 0 -- -- 93
2019-11-29 19:00:00 3.3 4 Norte 6 Noroeste 0 -- -- 91
2019-11-29 18:00:00 4 4 Noroeste 11 Noroeste 0 -- -- 87
2019-11-29 17:00:00 5.6 3 Oeste 14 Sudeste 0 -- -- 79
2019-11-29 16:00:00 7.6 6 Sudeste 14 Sudeste 0 -- -- 75
2019-11-29 15:00:00 9.2 4 Sur 14 Sur 0 -- -- 65
2019-11-29 14:00:00 8.9 6 Sudeste 12 Sur 0 -- -- 69
2019-11-29 13:00:00 7.9 5 Sudeste 10 Sudeste 0 -- -- 76
2019-11-29 12:00:00 5.6 2 Sur 7 Sur 0 -- -- 89
2019-11-29 11:00:00 5.1 2 Noroeste 5 Noroeste 0 -- -- 100
2019-11-29 10:00:00 2.8 2 Oeste 6 Sur 0 -- -- 100
2019-11-29 09:00:00 0.6 4 Noroeste 8 Noroeste 0 -- -- 100
2019-11-29 08:00:00 0.9 5 Noroeste 8 Noroeste 0 -- -- 100
2019-11-29 07:00:00 1.3 4 Noroeste 10 Noroeste 0 -- -- 100
2019-11-29 06:00:00 1.3 3 Noroeste 6 Noroeste 0 -- -- 100
2019-11-29 05:00:00 1.4 3 Noroeste 8 Noroeste 0 -- -- 100
2019-11-29 04:00:00 1.8 5 Noroeste 9 Oeste 0 -- -- 100
2019-11-29 03:00:00 2.8 6 Noroeste 10 Noroeste 0 -- -- 100
2019-11-29 02:00:00 3.3 3 Noroeste 10 Noroeste 0 -- -- 100
2019-11-29 01:00:00 4.9 4 Noroeste 9 Oeste 0 -- -- 100
2019-11-29 00:00:00 5.5 4 Noroeste 13 Noroeste 0 -- -- 100
2019-11-28 23:00:00 5.8 4 Noroeste 19 Noroeste 0 -- -- 100
2019-11-28 22:00:00 6.7 4 Noroeste 16 Noroeste 1 -- -- 100
2019-11-28 21:00:00 6.9 6 Noroeste 20 Oeste 0.6 -- -- 100
2019-11-28 20:00:00 4.3 0 Calma 5 Noroeste 1.6 -- -- 100
2019-11-28 19:00:00 5 0 Calma 21 Noroeste 3.4 -- -- 100
2019-11-28 18:00:00 5.5 5 Noroeste 18 Noroeste 1.2 -- -- 100
2019-11-28 17:00:00 4.8 5 Noroeste 23 Noroeste 0.6 -- -- 100
2019-11-28 16:00:00 5.3 7 Noroeste 22 Norte 0.6 -- -- 98
2019-11-28 15:00:00 5.1 6 Noroeste 15 Noroeste 0.8 -- -- 97
2019-11-28 14:00:00 5.8 5 Norte 22 Norte 0.2 -- -- 95
2019-11-28 13:00:00 6.6 5 Noroeste 17 Oeste 0.2 -- -- 99
2019-11-28 12:00:00 6.2 4 Noroeste 13 Oeste 0 -- -- 100
2019-11-28 11:00:00 5.6 5 Noroeste 15 Norte 0 -- -- 100
2019-11-28 10:00:00 4.7 5 Noroeste 13 Noroeste 0 -- -- 100
2019-11-28 09:00:00 4.9 3 Oeste 16 Noroeste 0 -- -- 100
2019-11-28 08:00:00 4.9 6 Noroeste 13 Noroeste 0 -- -- 100
2019-11-28 07:00:00 3.5 5 Noroeste 9 Noroeste 0 -- -- 100
2019-11-28 06:00:00 4.2 2 Noroeste 10 Noroeste 0 -- -- 100
2019-11-28 05:00:00 3.8 4 Noroeste 8 Noroeste 0 -- -- 100
2019-11-28 04:00:00 4.3 3 Noroeste 9 Oeste 0 -- -- 100
2019-11-28 03:00:00 4.3 3 Noroeste 13 Oeste 0.2 -- -- 100
2019-11-28 02:00:00 5.2 4 Oeste 20 Norte 0 -- -- 99
2019-11-28 01:00:00 4.9 4 Noroeste 18 Oeste 1.4 -- -- 100
2019-11-28 00:00:00 4.8 5 Noroeste 14 Noroeste 0.8 -- -- 100
2019-11-27 23:00:00 4.4 5 Noroeste 14 Noroeste 0.6 -- -- 100
2019-11-27 22:00:00 4.6 4 Noroeste 32 Noroeste 0 -- -- 99
2019-11-27 21:00:00 4.2 5 Noroeste 14 Noroeste 0.8 -- -- 100
2019-11-27 20:00:00 3.9 6 Noroeste 18 Noroeste 0.4 -- -- 100
2019-11-27 19:00:00 3.4 4 Noroeste 13 Noroeste 1.6 -- -- 100
2019-11-27 18:00:00 3.7 5 Noroeste 12 Noroeste 0.6 -- -- 100
2019-11-27 17:00:00 3.5 5 Noroeste 19 Noroeste 0.8 -- -- 99
2019-11-27 16:00:00 3.4 7 Noroeste 30 Oeste 1.8 -- -- 96
2019-11-27 15:00:00 4.2 9 Noroeste 23 Oeste 0 -- -- 94
2019-11-27 14:00:00 4.6 8 Noroeste 24 Noroeste 0 -- -- 91
2019-11-27 06:00:00 -- -- -- -- -- -- -- -- --
2019-11-27 05:00:00 -- -- -- -- -- -- -- -- --
2019-11-27 04:00:00 3.7 5 Noroeste 24 Noroeste 0 -- -- 96
2019-11-27 03:00:00 3.7 10 Noroeste 19 Noroeste 0 -- -- 97
2019-11-27 02:00:00 3.6 8 Noroeste 29 Noroeste 0.2 -- -- 95
2019-11-27 01:00:00 3.5 9 Noroeste 17 Noroeste 0 -- -- 93
2019-11-27 00:00:00 3.4 6 Noroeste 22 Noroeste 0 -- -- 91
2019-11-26 23:00:00 3.3 6 Noroeste 20 Noroeste 0 -- -- 94
2019-11-26 22:00:00 4 9 Noroeste 25 Noroeste 0 -- -- 88
2019-11-26 21:00:00 3.9 9 Noroeste 24 Noroeste 0 -- -- 88
2019-11-26 20:00:00 4.4 13 Noroeste 44 Oeste 0.6 -- -- 84
2019-11-26 19:00:00 4.9 7 Noroeste 23 Noroeste 0 -- -- 96
2019-11-26 18:00:00 5.6 6 Norte 24 Nordeste 0 -- -- 96
2019-11-26 17:00:00 6.3 5 Norte 40 Sur 0 -- -- 95
2019-11-26 16:00:00 7.3 9 Sudeste 36 Sudeste 0 -- -- 82
2019-11-26 15:00:00 7.7 10 Sudeste 57 Sudeste 0 -- -- 77
2019-11-26 14:00:00 7.7 8 Este 32 Sudeste 0 -- -- 79
2019-11-26 13:00:00 7.4 8 Este 38 Sur 0 -- -- 81
2019-11-26 12:00:00 7.1 9 Nordeste 28 Nordeste 0 -- -- 84
2019-11-26 11:00:00 6.9 10 Nordeste 31 Este 0 -- -- 83
2019-11-26 10:00:00 7.4 10 Nordeste 34 Sur 0 -- -- 88
2019-11-26 09:00:00 7 7 Nordeste 31 Nordeste 0 -- -- 95
2019-11-26 08:00:00 7.1 8 Sudeste 25 Sudeste 0 -- -- 97
2019-11-26 07:00:00 6.8 5 Nordeste 27 Sur 0 -- -- 98
2019-11-26 06:00:00 7.6 9 Nordeste 33 Este 0 -- -- 97
2019-11-26 05:00:00 7.6 9 Norte 25 Nordeste 0 -- -- 97
2019-11-26 04:00:00 8 6 Nordeste 27 Nordeste 0 -- -- 94
2019-11-26 03:00:00 7.6 9 Sudeste 25 Este 0 -- -- 97
2019-11-26 02:00:00 6 15 Este 25 Sudeste 0 -- -- 96
2019-11-26 01:00:00 4.7 5 Nordeste 12 Nordeste 0 -- -- 98
2019-11-26 00:00:00 3 2 Norte 10 Noroeste 0 -- -- 97
2019-11-25 23:00:00 2.8 4 Oeste 9 Oeste 0 -- -- 97
2019-11-25 22:00:00 3 4 Nordeste 9 Nordeste 0 -- -- 98
2019-11-25 21:00:00 3.7 3 Noroeste 10 Noroeste 0 -- -- 97
2019-11-25 20:00:00 3.1 4 Norte 9 Norte 0 -- -- 99
2019-11-25 19:00:00 3.6 3 Norte 9 Noroeste 0 -- -- 97
2019-11-25 18:00:00 4.1 6 Noroeste 21 Oeste 0 -- -- 94
2019-11-25 17:00:00 5.5 5 Noroeste 17 Sudoeste 0 -- -- 89
2019-11-25 16:00:00 5.3 3 Noroeste 9 Sur 0 -- -- 90
2019-11-25 15:00:00 6.8 3 Nordeste 9 Nordeste 0 -- -- 83
2019-11-25 14:00:00 8 3 Norte 11 Sudoeste 0 -- -- 84
2019-11-25 13:00:00 7.1 4 Norte 9 Noroeste 0 -- -- 89
2019-11-25 12:00:00 6.4 3 Noroeste 8 Noroeste 0 -- -- 95
2019-11-25 11:00:00 4.3 0 Calma 3 Este 0 -- -- 98
2019-11-25 10:00:00 4.2 0 Calma 14 Oeste 0 -- -- 97
2019-11-25 09:00:00 4.6 8 Noroeste 16 Noroeste 0 -- -- 96
2019-11-25 08:00:00 5.2 7 Noroeste 17 Noroeste 0.2 -- -- 96
2019-11-25 07:00:00 5.7 9 Noroeste 18 Noroeste 0 -- -- 97
2019-11-25 06:00:00 6.2 12 Noroeste 33 Noroeste 0 -- -- 93
2019-11-25 05:00:00 5.9 7 Noroeste 23 Noroeste 0 -- -- 95
2019-11-25 04:00:00 5.7 7 Noroeste 22 Noroeste 0.2 -- -- 96
2019-11-25 03:00:00 6 9 Noroeste 21 Oeste 0 -- -- 97
2019-11-25 02:00:00 5.8 10 Noroeste 21 Noroeste 0.2 -- -- 96
2019-11-25 01:00:00 4.7 10 Noroeste 20 Noroeste 0 -- -- 100
2019-11-25 00:00:00 5 9 Noroeste 18 Noroeste 0.8 -- -- 100
2019-11-24 23:00:00 2.9 0 Calma 6 Noroeste 0.8 -- -- 100
2019-11-24 22:00:00 3 0 Calma 5 Norte 0.8 -- -- 100
2019-11-24 21:00:00 3.4 0 Calma 22 Noroeste 0.4 -- -- 98
2019-11-24 20:00:00 5.1 10 Noroeste 30 Noroeste 0.4 -- -- 96
2019-11-24 19:00:00 4.2 5 Norte 18 Este 0.8 -- -- 99
2019-11-24 18:00:00 3.9 4 Norte 25 Este 0.2 -- -- 99
2019-11-24 17:00:00 4 5 Norte 21 Noroeste 1.4 -- -- 98
2019-11-24 16:00:00 3.9 4 Nordeste 8 Este 1.4 -- -- 97
2019-11-24 15:00:00 3.7 2 Este 5 Nordeste 1.6 -- -- 96
2019-11-24 14:00:00 3.6 0 Calma 14 Este 1.2 -- -- 96
2019-11-24 13:00:00 3.4 0 Calma 9 Nordeste 1.8 -- -- 94
2019-11-24 12:00:00 3.1 3 Sudeste 11 Sudeste 1 -- -- 92
2019-11-24 11:00:00 1.8 4 Norte 10 Sur 0.4 -- -- 94
2019-11-24 10:00:00 1.4 -- -- -- -- -- -- -- 90
2019-11-24 09:00:00 0.7 -- -- -- -- -- -- -- 97
2019-11-24 08:00:00 1.1 -- -- -- -- -- -- -- 93
2019-11-24 07:00:00 0.7 -- -- -- -- -- -- -- 94
2019-11-24 06:00:00 1 -- -- -- -- -- -- -- 92
2019-11-24 05:00:00 1.1 -- -- -- -- -- -- -- 97
2019-11-24 04:00:00 1.2 -- -- -- -- -- -- -- 100
2019-11-24 03:00:00 1.1 -- -- -- -- -- -- -- 100
2019-11-24 02:00:00 1.3 -- -- -- -- -- -- -- 100
2019-11-24 01:00:00 1.1 -- -- -- -- -- -- -- 100
2019-11-24 00:00:00 1.3 -- -- -- -- -- -- -- 99
2019-11-23 23:00:00 1.6 -- -- -- -- -- -- -- 94
2019-11-23 22:00:00 1.8 -- -- -- -- -- -- -- 98
2019-11-23 21:00:00 1.4 -- -- -- -- -- -- -- 99
2019-11-23 20:00:00 1.4 -- -- -- -- -- -- -- 98
2019-11-23 19:00:00 1.3 -- -- -- -- -- -- -- 100
2019-11-23 18:00:00 1.6 -- -- -- -- -- -- -- 99
2019-11-23 17:00:00 1.7 -- -- -- -- -- -- -- 100
2019-11-23 16:00:00 0.9 -- -- -- -- -- -- -- 100
2019-11-23 15:00:00 1.5 -- -- -- -- -- -- -- 100
2019-11-23 14:00:00 1.8 -- -- -- -- -- -- -- 98
2019-11-23 13:00:00 1.7 -- -- -- -- -- -- -- 99
2019-11-23 12:00:00 1.3 -- -- -- -- -- -- -- 98
2019-11-23 11:00:00 1.1 -- -- -- -- -- -- -- 98
2019-11-23 10:00:00 0.9 -- -- -- -- -- -- -- 95
2019-11-23 09:00:00 0.7 -- -- -- -- -- -- -- 96
2019-11-23 08:00:00 0.5 -- -- -- -- -- -- -- 98
2019-11-23 07:00:00 0.3 -- -- -- -- -- -- -- 97
2019-11-23 06:00:00 0.3 -- -- -- -- -- -- -- 98
2019-11-23 05:00:00 0.3 -- -- -- -- -- -- -- 97
2019-11-23 04:00:00 0.4 -- -- -- -- -- -- -- 100
2019-11-23 03:00:00 0.2 -- -- -- -- -- -- -- 100
2019-11-23 02:00:00 0 -- -- -- -- -- -- -- 100
2019-11-23 01:00:00 -0.1 -- -- -- -- -- -- -- 100
2019-11-23 00:00:00 0.4 -- -- -- -- -- -- -- 99
2019-11-22 23:00:00 2 -- -- -- -- -- -- -- 98
2019-11-22 22:00:00 3 -- -- -- -- -- -- -- 97
2019-11-22 21:00:00 3 -- -- -- -- -- -- -- 99
2019-11-22 20:00:00 3.3 -- -- -- -- -- -- -- 98
2019-11-22 19:00:00 2.8 -- -- -- -- -- -- -- 98
2019-11-22 18:00:00 2.5 -- -- -- -- -- -- -- 98
2019-11-22 17:00:00 2.9 -- -- -- -- -- -- -- 96
2019-11-22 16:00:00 3.4 -- -- -- -- -- -- -- 95
2019-11-22 15:00:00 3.6 -- -- -- -- -- -- -- 97
2019-11-22 14:00:00 4.4 -- -- -- -- -- -- -- 98
2019-11-22 13:00:00 4.8 -- -- -- -- -- -- -- 99
2019-11-22 12:00:00 5.2 -- -- -- -- -- -- -- 95
2019-11-22 11:00:00 4.2 -- -- -- -- -- -- -- 98
2019-11-22 10:00:00 3.3 -- -- -- -- -- -- -- 98
2019-11-22 09:00:00 2.9 -- -- -- -- -- -- -- 99
2019-11-22 08:00:00 2.1 -- -- -- -- -- -- -- 98
2019-11-22 07:00:00 1.4 -- -- -- -- -- -- -- 99
2019-11-22 06:00:00 1.4 -- -- -- -- -- -- -- 97
2019-11-22 05:00:00 1.4 -- -- -- -- -- -- -- 95
2019-11-22 04:00:00 1.2 -- -- -- -- -- -- -- 95
2019-11-22 03:00:00 1.2 -- -- -- -- -- -- -- 94
2019-11-22 02:00:00 1.8 -- -- -- -- -- -- -- 91
2019-11-22 01:00:00 1.3 -- -- -- -- -- -- -- 95
2019-11-22 00:00:00 1.6 -- -- -- -- -- -- -- 92
2019-11-21 23:00:00 1.4 -- -- -- -- -- -- -- 93
2019-11-21 22:00:00 1.6 -- -- -- -- -- -- -- 96
2019-11-21 21:00:00 1.6 -- -- -- -- -- -- -- 96
2019-11-21 20:00:00 1.4 -- -- -- -- -- -- -- 96
2019-11-21 19:00:00 0.8 -- -- -- -- -- -- -- 97
2019-11-21 18:00:00 1.5 -- -- -- -- -- -- -- 95
2019-11-21 17:00:00 1.7 -- -- -- -- -- -- -- 93
2019-11-21 16:00:00 2.9 -- -- -- -- -- -- -- 83
2019-11-21 15:00:00 3.5 -- -- -- -- -- -- -- 82
2019-11-21 14:00:00 4.4 -- -- -- -- -- -- -- 79
2019-11-21 13:00:00 3.1 -- -- -- -- -- -- -- 91
2019-11-21 12:00:00 1.8 -- -- -- -- -- -- -- 95
2019-11-21 11:00:00 0.8 -- -- -- -- -- -- -- 99
2019-11-21 10:00:00 0.2 -- -- -- -- -- -- -- 99
2019-11-21 09:00:00 -0.1 -- -- -- -- -- -- -- 98
2019-11-21 08:00:00 0 -- -- -- -- -- -- -- 100
2019-11-21 07:00:00 0.2 -- -- -- -- -- -- -- 100
2019-11-21 06:00:00 0 -- -- -- -- -- -- -- 100
2019-11-21 05:00:00 0.3 -- -- -- -- -- -- -- 100
2019-11-21 04:00:00 0.8 -- -- -- -- -- -- -- 99
2019-11-21 03:00:00 1.1 -- -- -- -- -- -- -- 98
2019-11-21 02:00:00 1.4 -- -- -- -- -- -- -- 97
2019-11-21 01:00:00 1.3 -- -- -- -- -- -- -- 97
2019-11-21 00:00:00 1.4 -- -- -- -- -- -- -- 97
2019-11-20 23:00:00 1.2 -- -- -- -- -- -- -- 97
2019-11-20 22:00:00 1.5 -- -- -- -- -- -- -- 98
2019-11-20 21:00:00 1.5 -- -- -- -- -- -- -- 98
2019-11-20 20:00:00 1.7 -- -- -- -- -- -- -- 98
2019-11-20 19:00:00 2 -- -- -- -- -- -- -- 95
2019-11-20 18:00:00 2.2 -- -- -- -- -- -- -- 93
2019-11-20 17:00:00 2.7 -- -- -- -- -- -- -- 88
2019-11-20 16:00:00 3 -- -- -- -- -- -- -- 88
2019-11-20 15:00:00 3.3 -- -- -- -- -- -- -- 87
2019-11-20 14:00:00 3.1 -- -- -- -- -- -- -- 93
2019-11-20 13:00:00 2.8 -- -- -- -- -- -- -- 95
2019-11-20 12:00:00 3 -- -- -- -- -- -- -- 93
2019-11-20 11:00:00 2.7 -- -- -- -- -- -- -- 96
2019-11-20 10:00:00 2.6 -- -- -- -- -- -- -- 96
2019-11-20 09:00:00 2.2 -- -- -- -- -- -- -- 100
2019-11-20 08:00:00 1.7 -- -- -- -- -- -- -- 100
2019-11-20 07:00:00 1.5 -- -- -- -- -- -- -- 100
2019-11-20 06:00:00 1.8 -- -- -- -- -- -- -- 99
2019-11-20 05:00:00 1.8 -- -- -- -- -- -- -- 99
2019-11-20 04:00:00 1.7 -- -- -- -- -- -- -- 100
2019-11-20 03:00:00 1.7 -- -- -- -- -- -- -- 100
2019-11-20 02:00:00 1.9 -- -- -- -- -- -- -- 99
2019-11-20 01:00:00 1.9 -- -- -- -- -- -- -- 97
2019-11-20 00:00:00 1.6 -- -- -- -- -- -- -- 97
2019-11-19 23:00:00 2 -- -- -- -- -- -- -- 95
2019-11-19 22:00:00 1.5 -- -- -- -- -- -- -- 95
2019-11-19 21:00:00 1.6 -- -- -- -- -- -- -- 94
2019-11-19 20:00:00 1.5 -- -- -- -- -- -- -- 83
2019-11-19 19:00:00 1.9 -- -- -- -- -- -- -- 83
2019-11-19 18:00:00 2.3 -- -- -- -- -- -- -- 74
2019-11-19 17:00:00 2.5 -- -- -- -- -- -- -- 75
2019-11-19 16:00:00 2.7 -- -- -- -- -- -- -- 72
2019-11-19 15:00:00 2.6 -- -- -- -- -- -- -- 74
2019-11-19 14:00:00 2.6 -- -- -- -- -- -- -- 75
2019-11-19 13:00:00 3.2 -- -- -- -- -- -- -- 75
2019-11-19 12:00:00 2.1 -- -- -- -- -- -- -- 80
2019-11-19 11:00:00 0.5 -- -- -- -- -- -- -- 90
2019-11-19 10:00:00 -0.9 -- -- -- -- -- -- -- 96
2019-11-19 09:00:00 -2.6 -- -- -- -- -- -- -- 99
2019-11-19 08:00:00 -3.3 -- -- -- -- -- -- -- 98
2019-11-19 07:00:00 -1 -- -- -- -- -- -- -- 90
2019-11-19 06:00:00 -3.4 -- -- -- -- -- -- -- 99
2019-11-19 05:00:00 -3.3 -- -- -- -- -- -- -- 99
2019-11-19 04:00:00 -2.9 -- -- -- -- -- -- -- 99
2019-11-19 03:00:00 -2.9 -- -- -- -- -- -- -- 98
2019-11-19 02:00:00 -2.7 -- -- -- -- -- -- -- 98
2019-11-19 01:00:00 -1.5 -- -- -- -- -- -- -- 94
2019-11-19 00:00:00 -1.4 -- -- -- -- -- -- -- 96
2019-11-18 23:00:00 -0.4 -- -- -- -- -- -- -- 95
2019-11-18 22:00:00 -0.8 -- -- -- -- -- -- -- 100
2019-11-18 21:00:00 -0.2 -- -- -- -- -- -- -- 100
2019-11-18 20:00:00 0 -- -- -- -- -- -- -- 100
2019-11-18 19:00:00 0.2 -- -- -- -- -- -- -- 100
2019-11-18 18:00:00 0.6 -- -- -- -- -- -- -- 100
2019-11-18 17:00:00 0.7 -- -- -- -- -- -- -- 100
2019-11-18 16:00:00 0.8 -- -- -- -- -- -- -- 100
2019-11-18 15:00:00 1.1 -- -- -- -- -- -- -- 99
2019-11-18 14:00:00 1.8 -- -- -- -- -- -- -- 99
2019-11-18 13:00:00 0.6 -- -- -- -- -- -- -- 100
2019-11-18 12:00:00 0.1 -- -- -- -- -- -- -- 100
2019-11-18 11:00:00 -0.1 -- -- -- -- -- -- -- 100
2019-11-18 10:00:00 0 -- -- -- -- -- -- -- 100
2019-11-18 09:00:00 -0.3 -- -- -- -- -- -- -- 100
2019-11-18 08:00:00 -0.3 -- -- -- -- -- -- -- 100
2019-11-18 07:00:00 -0.4 -- -- -- -- -- -- -- 100
2019-11-18 06:00:00 -0.3 -- -- -- -- -- -- -- 100
2019-11-18 05:00:00 -0.2 -- -- -- -- -- -- -- 100
2019-11-18 04:00:00 -0.1 -- -- -- -- -- -- -- 100
2019-11-18 03:00:00 0 -- -- -- -- -- -- -- 100
2019-11-18 02:00:00 -0.1 -- -- -- -- -- -- -- 100
2019-11-18 01:00:00 0.1 -- -- -- -- -- -- -- 100
2019-11-18 00:00:00 -0.1 -- -- -- -- -- -- -- 100
2019-11-17 23:00:00 -0.2 -- -- -- -- -- -- -- 100
2019-11-17 22:00:00 0 -- -- -- -- -- -- -- 100
2019-11-17 21:00:00 0.1 -- -- -- -- -- -- -- 100
2019-11-17 20:00:00 0.1 -- -- -- -- -- -- -- 100
2019-11-17 19:00:00 0.2 -- -- -- -- -- -- -- 100
2019-11-17 18:00:00 0.5 -- -- -- -- -- -- -- 100
2019-11-17 17:00:00 0.8 -- -- -- -- -- -- -- 99
2019-11-17 16:00:00 1.3 -- -- -- -- -- -- -- 99
2019-11-17 15:00:00 1.9 -- -- -- -- -- -- -- 95
2019-11-17 14:00:00 1.9 -- -- -- -- -- -- -- 100
2019-11-17 13:00:00 2.2 -- -- -- -- -- -- -- 100
2019-11-17 12:00:00 2.4 -- -- -- -- -- -- -- 100
2019-11-17 11:00:00 2.5 -- -- -- -- -- -- -- 100
2019-11-17 10:00:00 2.1 -- -- -- -- -- -- -- 100
2019-11-17 09:00:00 1.4 -- -- -- -- -- -- -- 100
2019-11-17 08:00:00 2.3 -- -- -- -- -- -- -- 100
2019-11-17 07:00:00 1.5 -- -- -- -- -- -- -- 100
2019-11-17 06:00:00 0.9 -- -- -- -- -- -- -- 100
2019-11-17 05:00:00 0.7 -- -- -- -- -- -- -- 100
2019-11-17 04:00:00 0.2 -- -- -- -- -- -- -- 100
2019-11-17 03:00:00 0.1 -- -- -- -- -- -- -- 100
2019-11-17 02:00:00 0.1 -- -- -- -- -- -- -- 100
2019-11-17 01:00:00 0.1 -- -- -- -- -- -- -- 100
2019-11-17 00:00:00 0 -- -- -- -- -- -- -- 100
2019-11-16 23:00:00 0 -- -- -- -- -- -- -- 100
2019-11-16 22:00:00 -0.1 -- -- -- -- -- -- -- 100
2019-11-16 21:00:00 -0.4 -- -- -- -- -- -- -- 100
2019-11-16 20:00:00 -0.4 -- -- -- -- -- -- -- 100
2019-11-16 19:00:00 -0.6 -- -- -- -- -- -- -- 100
2019-11-16 18:00:00 -0.7 -- -- -- -- -- -- -- 99
2019-11-16 17:00:00 -0.3 -- -- -- -- -- -- -- 95
2019-11-16 16:00:00 0 -- -- -- -- -- -- -- 98
2019-11-16 15:00:00 -0.2 -- -- -- -- -- -- -- 100
2019-11-16 14:00:00 -0.3 -- -- -- -- -- -- -- 100
2019-11-16 13:00:00 -0.3 -- -- -- -- -- -- -- 100
2019-11-16 12:00:00 -0.4 -- -- -- -- -- -- -- 100
2019-11-16 11:00:00 -1 -- -- -- -- -- -- -- 100
2019-11-16 10:00:00 -1.3 -- -- -- -- -- -- -- 100
2019-11-16 09:00:00 -1.7 -- -- -- -- -- -- -- 100
2019-11-16 08:00:00 -1.8 -- -- -- -- -- -- -- 100
2019-11-16 07:00:00 -1.8 -- -- -- -- -- -- -- 100
2019-11-16 06:00:00 -1.8 -- -- -- -- -- -- -- 100
2019-11-16 05:00:00 -1.8 -- -- -- -- -- -- -- 100
2019-11-16 04:00:00 -1.8 -- -- -- -- -- -- -- 100
2019-11-16 03:00:00 -1.9 -- -- -- -- -- -- -- 100
2019-11-16 02:00:00 -1.9 -- -- -- -- -- -- -- 100
2019-11-16 01:00:00 -2 -- -- -- -- -- -- -- 100
2019-11-16 00:00:00 -1.9 -- -- -- -- -- -- -- 100
2019-11-15 23:00:00 -2 -- -- -- -- -- -- -- 100
2019-11-15 22:00:00 -1.9 -- -- -- -- -- -- -- 100
2019-11-15 21:00:00 -2.1 -- -- -- -- -- -- -- 100
2019-11-15 20:00:00 -2.1 -- -- -- -- -- -- -- 100
2019-11-15 19:00:00 -2 -- -- -- -- -- -- -- 100
2019-11-15 18:00:00 -1.9 -- -- -- -- -- -- -- 100
2019-11-15 17:00:00 -1.7 -- -- -- -- -- -- -- 99
2019-11-15 16:00:00 -1.4 -- -- -- -- -- -- -- 99
2019-11-15 15:00:00 -1.3 -- -- -- -- -- -- -- 99
2019-11-15 14:00:00 -1.2 -- -- -- -- -- -- -- 100
2019-11-15 13:00:00 -1.5 -- -- -- -- -- -- -- 100
2019-11-15 12:00:00 -1.7 -- -- -- -- -- -- -- 100
2019-11-15 11:00:00 -1.7 -- -- -- -- -- -- -- 100
2019-11-15 10:00:00 -1.8 -- -- -- -- -- -- -- 100
2019-11-15 09:00:00 -1.9 -- -- -- -- -- -- -- 99
2019-11-15 08:00:00 -1.8 -- -- -- -- -- -- -- 98
2019-11-15 07:00:00 -1.8 -- -- -- -- -- -- -- 100
2019-11-15 06:00:00 -2.3 -- -- -- -- -- -- -- 100
2019-11-15 05:00:00 -2.3 -- -- -- -- -- -- -- 100
2019-11-15 04:00:00 -2.2 -- -- -- -- -- -- -- 100
2019-11-15 03:00:00 -2 -- -- -- -- -- -- -- 100
2019-11-15 02:00:00 -1.7 -- -- -- -- -- -- -- 100
2019-11-15 01:00:00 -1.8 -- -- -- -- -- -- -- 100
2019-11-15 00:00:00 -1.7 -- -- -- -- -- -- -- 100
2019-11-14 23:00:00 -1.5 -- -- -- -- -- -- -- 100
2019-11-14 22:00:00 -0.9 -- -- -- -- -- -- -- 100
2019-11-14 21:00:00 -1.1 -- -- -- -- -- -- -- 100
2019-11-14 20:00:00 -1 -- -- -- -- -- -- -- 100
2019-11-14 19:00:00 -0.8 -- -- -- -- -- -- -- 100
2019-11-14 18:00:00 -0.9 -- -- -- -- -- -- -- 100
2019-11-14 17:00:00 -0.6 -- -- -- -- -- -- -- 98
2019-11-14 16:00:00 -1.1 -- -- -- -- -- -- -- 100
2019-11-14 15:00:00 -0.8 -- -- -- -- -- -- -- 100
2019-11-14 14:00:00 -1.2 -- -- -- -- -- -- -- 100
2019-11-14 13:00:00 -1.6 -- -- -- -- -- -- -- 99
2019-11-14 12:00:00 -1.6 -- -- -- -- -- -- -- 99
2019-11-14 11:00:00 -1.8 -- -- -- -- -- -- -- 98
2019-11-14 10:00:00 -1.8 -- -- -- -- -- -- -- 98
2019-11-14 09:00:00 -2 -- -- -- -- -- -- -- 100
2019-11-14 08:00:00 -2 -- -- -- -- -- -- -- 100
2019-11-14 07:00:00 -1.7 -- -- -- -- -- -- -- 100
2019-11-14 06:00:00 -1.7 -- -- -- -- -- -- -- 99
2019-11-14 05:00:00 -1.6 -- -- -- -- -- -- -- 95
2019-11-14 04:00:00 -0.8 -- -- -- -- -- -- -- 98
2019-11-14 03:00:00 -0.3 -- -- -- -- -- -- -- 99
2019-11-14 02:00:00 0.3 6 Noroeste 22 Noroeste 0 -- -- 100
2019-11-14 01:00:00 1.3 6 Noroeste 21 Norte 0 -- -- 99
2019-11-14 00:00:00 2 5 Norte 27 Noroeste 0 -- -- 98
2019-11-13 23:00:00 1.9 4 Noroeste 18 Norte 0 -- -- 98
2019-11-13 22:00:00 2.9 12 Noroeste 35 Oeste 0 -- -- 94
2019-11-13 21:00:00 3.2 10 Noroeste 30 Oeste 0 -- -- 94
2019-11-13 20:00:00 3.4 10 Noroeste 34 Noroeste 0 -- -- 92
2019-11-13 19:00:00 3.2 5 Noroeste 31 Noroeste 0 -- -- 93
2019-11-13 18:00:00 3.2 8 Noroeste 26 Noroeste 0 -- -- 92
2019-11-13 17:00:00 3.6 4 Noroeste 20 Oeste 0 -- -- 93
2019-11-13 16:00:00 4.1 4 Noroeste 15 Oeste 0.2 -- -- 98
2019-11-13 15:00:00 4.5 3 Noroeste 10 Noroeste 0 -- -- 100
2019-11-13 14:00:00 4.2 3 Nordeste 11 Noroeste 0.4 -- -- 100
2019-11-13 13:00:00 4.2 5 Oeste 18 Oeste 0.2 -- -- 98
2019-11-13 12:00:00 4.8 3 Oeste 13 Noroeste 0.2 -- -- 99
2019-11-13 11:00:00 4.6 0 Calma 10 Noroeste 0.2 -- -- 100
2019-11-13 10:00:00 3.9 3 Este 10 Sudoeste 0.2 -- -- 100
2019-11-13 09:00:00 3.8 3 Oeste 14 Oeste 0.2 -- -- 100
2019-11-13 08:00:00 3.9 5 Oeste 16 Oeste 1.2 -- -- 100
2019-11-13 07:00:00 4.1 4 Sur 13 Oeste 1.6 -- -- 100
2019-11-13 06:00:00 3.7 3 Sudoeste 12 Sudeste 2 -- -- 100
2019-11-13 05:00:00 4.8 2 Oeste 17 Este 0.8 -- -- 100
2019-11-13 04:00:00 5.7 4 Oeste 33 Oeste 1.4 -- -- 98
2019-11-13 03:00:00 6.5 8 Oeste 43 Oeste 2.4 -- -- 99
2019-11-13 02:00:00 6 5 Oeste 23 Oeste 4.2 -- -- 100
2019-11-13 01:00:00 5.8 7 Noroeste 49 Noroeste 6 -- -- 100
2019-11-13 00:00:00 7.1 5 Noroeste 17 Oeste 0 -- -- 100
2019-11-12 23:00:00 5.3 4 Norte 7 Noroeste 0 -- -- 100
2019-11-12 22:00:00 4.8 4 Noroeste 7 Noroeste 0 -- -- 100
2019-11-12 21:00:00 4.8 4 Noroeste 10 Noroeste 0 -- -- 100
2019-11-12 20:00:00 4.2 3 Norte 10 Noroeste 0 -- -- 100
2019-11-12 19:00:00 3.8 5 Noroeste 9 Noroeste 0 -- -- 100
2019-11-12 18:00:00 2.4 3 Noroeste 5 Noroeste 0 -- -- 100
2019-11-12 17:00:00 2.5 0 Calma 2 Noroeste 0 -- -- 100
2019-11-12 16:00:00 2.7 0 Calma 3 Noroeste 0 -- -- 100
2019-11-12 15:00:00 3.1 0 Calma 4 Sudeste 0 -- -- 99
2019-11-12 14:00:00 3.5 0 Calma 4 Oeste 0 -- -- 100
2019-11-12 13:00:00 3.3 3 Noroeste 7 Noroeste 0 -- -- 100
2019-11-12 12:00:00 2.5 0 Calma 4 Sudoeste 0 -- -- 100
2019-11-12 11:00:00 2 0 Calma 4 Oeste 0 -- -- 100
2019-11-12 10:00:00 1.1 0 Calma 4 Noroeste 0 -- -- 100
2019-11-12 09:00:00 0.7 0 Calma 5 Noroeste 0 -- -- 100
2019-11-12 08:00:00 0.6 2 Norte -- -- -- -- -- 100
2019-11-12 07:00:00 0.6 0 Calma -- -- -- -- -- 100
2019-11-12 06:00:00 0.7 0 Calma -- -- -- -- -- 100
2019-11-12 05:00:00 0.7 3 Noroeste -- -- -- -- -- 100
2019-11-12 04:00:00 0.4 0 Calma 4 Noroeste -- -- -- 100
2019-11-12 03:00:00 0.7 0 Calma -- -- -- -- -- 100
2019-11-12 02:00:00 0.7 2 Noroeste -- -- -- -- -- 100
2019-11-12 01:00:00 0.5 2 Noroeste -- -- -- -- -- 99
2019-11-12 00:00:00 0.7 0 Calma 10 Oeste -- -- -- 99
2019-11-11 23:00:00 0.8 2 Noroeste 5 Noroeste -- -- -- 99
2019-11-11 22:00:00 0.9 0 Calma 8 Sur -- -- -- 97
2019-11-11 21:00:00 1 0 Calma 10 Sur -- -- -- 94
2019-11-11 20:00:00 1.5 0 Calma 15 Sudeste -- -- -- 90
2019-11-11 19:00:00 2.1 5 Sudoeste 25 Norte -- -- -- 90
2019-11-11 18:00:00 2.6 4 Sudeste 21 Sudoeste -- -- -- 89
2019-11-11 17:00:00 3 5 Sudeste 24 Sur -- -- -- 86
2019-11-11 16:00:00 3.1 11 Sudeste 29 Este -- -- -- 87
2019-11-11 15:00:00 3.4 11 Sur 31 Sudoeste -- -- -- 87
2019-11-11 14:00:00 3.8 9 Sudeste 33 Este -- -- -- 91
2019-11-11 13:00:00 4.5 5 Sudoeste 29 Sudoeste -- -- -- 88
2019-11-11 12:00:00 4.6 7 Oeste 21 Oeste -- -- -- 90
2019-11-11 11:00:00 5 9 Sudeste 31 Oeste -- -- -- 96
2019-11-11 10:00:00 5.5 10 Oeste 23 Noroeste -- -- -- 100
2019-11-11 09:00:00 5.7 -- -- -- -- -- -- -- 100
2019-11-11 08:00:00 3.1 -- -- -- -- -- -- -- 100
2019-11-11 07:00:00 3.8 -- -- -- -- -- -- -- 100
2019-11-11 06:00:00 2.3 -- -- -- -- -- -- -- 100
2019-11-11 05:00:00 1.5 -- -- -- -- -- -- -- 100
2019-11-11 04:00:00 1.3 -- -- -- -- -- -- -- 100
2019-11-11 03:00:00 0.5 -- -- -- -- -- -- -- 100
2019-11-11 02:00:00 0.2 -- -- -- -- -- -- -- 100
2019-11-11 01:00:00 0.1 -- -- -- -- -- -- -- 100
2019-11-11 00:00:00 0.2 -- -- -- -- -- -- -- 100